Flag for Japan Weather past 2 weeks in Minamisōma, Japan

Now
84 °F

Partly sunny.


Feels Like: 92 °F
Forecast: 73 / 94 °F
Wind: 9 mph from South

Location: Sendai Airport

Current Time: Aug 4, 2015 at 5:23:46 PM

Latest Report: Aug 4, 2015 at 5:00 PM


Visibility: 5 mi

Pressure: 29.77 "Hg

Humidity: 74%

Dew point: 75 °F

Location of MinamisōmaLocation

Historic Weather in Minamisōma — Graph

°F

Minamisōma temperature yesterday

Maximum temperature yesterday: 86 °F (at 9:00 AM)
Minimum temperature yesterday: 79 °F (at 6:00 AM)
Average temperature yesterday: 82 °F

Past Weeks' High & Low Weather Summary

 TemperatureHumidityPressure
High90 °F (Jul 27, 12:00 PM)100% (Jul 25, 6:00 AM)29.95 "Hg (Jul 25, 6:00 AM)
Low73 °F (Jul 21, 6:00 AM)52% (Jul 25, 5:00 PM)29.68 "Hg (Jul 28, 1:00 PM)
Average81 °F80%29.80 "Hg
* Reported Jul 20 4:00 PM — Aug 4 4:00 PM, Minamisōma, Weather by CustomWeather, © 2015

Note: Actual official high and low records may vary slightly from our data, if they occured in-between our weather recording intervals... More about our weather records

Advertising

Minamisōma weather history for previous 24 hours

 ConditionsComfort  
Time TempWeatherWind HumidityBarometerVisibility
4:00 PM
Tue, Aug 4
84 °FPartly sunny.14 mph74%29.77 "HgN/A
3:00 PM88 °FPartly sunny.14 mph66%29.77 "HgN/A
2:00 PM88 °FPartly sunny.12 mph62%29.77 "HgN/A
1:00 PM88 °FScattered clouds.12 mph62%29.80 "HgN/A
12:00 PM88 °FScattered clouds.12 mph66%29.80 "HgN/A
11:00 AM86 °FPartly sunny.9 mph75%29.80 "HgN/A
10:00 AM88 °FClear.9 mph66%29.80 "Hg6 mi
9:00 AM88 °FPassing clouds.5 mph66%29.80 "HgN/A
8:00 AM84 °FSunny.2 mph70%29.80 "Hg10 mi
7:00 AM81 °FClear.1 mph84%29.83 "Hg6 mi
6:00 AM79 °FClear.1 mph89%29.83 "Hg4 mi
9:00 PM
Mon, Aug 3
79 °FPassing clouds.2 mph89%29.86 "Hg5 mi
8:00 PM79 °FPassing clouds.3 mph89%29.83 "Hg5 mi
7:00 PM79 °FPassing clouds.3 mph89%29.83 "Hg5 mi
6:00 PM79 °FScattered clouds.5 mph89%29.83 "Hg5 mi
5:00 PM81 °FPartly sunny.8 mph84%29.83 "Hg5 mi
Weather by CustomWeather, © 2015

See weather overviewHow to use our weather pages